AUA45 EDDF-LOWI

Flight info

Callsign AUA45
Flight time 0h 44m
Altitude 25000
Route CINDY8S/18 CINDY Z74 LAMPU/N0399F230 Z54 NOMBO Y161 MANAL M736 TULSI TULSI3A
Aircraft A320/M-SDE3FGHIRWY/LB1

Departure

Time 2026-04-14 08:38
Airport Frankfurt Main Airport (EDDF)

Arrival

Time 2026-04-14 09:22
Airport Innsbruck Airport (LOWI)
Time Latitude Longitude Altitude Speed Heading
2026-04-14 08:02 50.04531 8.56591 365 ft 0 kts 116°
2026-04-14 08:24 50.04537 8.56572 364 ft 4 kts 117°
2026-04-14 08:25 50.04549 8.56535 363 ft 4 kts 120°
2026-04-14 08:25 50.04564 8.56500 360 ft 4 kts 129°
2026-04-14 08:25 50.04582 8.56473 367 ft 4 kts 167°
2026-04-14 08:25 50.04593 8.56471 361 ft 0 kts 206°
2026-04-14 08:30 50.04578 8.56460 364 ft 6 kts 206°
2026-04-14 08:30 50.04528 8.56412 363 ft 10 kts 226°
2026-04-14 08:31 50.04501 8.56321 361 ft 9 kts 250°
2026-04-14 08:31 50.04464 8.56166 360 ft 6 kts 250°
2026-04-14 08:31 50.04443 8.56081 358 ft 13 kts 246°
2026-04-14 08:32 50.04373 8.56039 361 ft 11 kts 165°
2026-04-14 08:32 50.04296 8.56067 353 ft 12 kts 194°
2026-04-14 08:32 50.04249 8.55982 356 ft 9 kts 250°
2026-04-14 08:32 50.04223 8.55867 359 ft 15 kts 249°
2026-04-14 08:33 50.04179 8.55681 363 ft 21 kts 250°
2026-04-14 08:33 50.04120 8.55468 360 ft 22 kts 244°
2026-04-14 08:33 50.04079 8.55248 363 ft 20 kts 249°
2026-04-14 08:33 50.04026 8.55047 355 ft 18 kts 249°
2026-04-14 08:34 50.03977 8.54853 355 ft 21 kts 248°
2026-04-14 08:34 50.03930 8.54648 352 ft 21 kts 249°
2026-04-14 08:34 50.03883 8.54450 347 ft 17 kts 250°
2026-04-14 08:34 50.03841 8.54325 353 ft 12 kts 235°
2026-04-14 08:35 50.03802 8.54228 356 ft 10 kts 246°
2026-04-14 08:35 50.03766 8.54081 345 ft 20 kts 249°
2026-04-14 08:35 50.03716 8.53860 350 ft 23 kts 256°
2026-04-14 08:35 50.03657 8.53630 335 ft 19 kts 250°
2026-04-14 08:36 50.03607 8.53423 333 ft 22 kts 250°
2026-04-14 08:36 50.03552 8.53194 338 ft 23 kts 249°
2026-04-14 08:36 50.03496 8.52962 349 ft 23 kts 250°
2026-04-14 08:36 50.03441 8.52756 358 ft 18 kts 246°
2026-04-14 08:37 50.03381 8.52596 352 ft 13 kts 205°
2026-04-14 08:37 50.03345 8.52592 348 ft 0 kts 179°
2026-04-14 08:37 50.03279 8.52593 352 ft 38 kts 180°
2026-04-14 08:37 50.02736 8.52594 346 ft 113 kts 179°
2026-04-14 08:38 50.01750 8.52588 345 ft 169 kts 181°
2026-04-14 08:38 50.00517 8.52576 809 ft 182 kts 181°
2026-04-14 08:38 49.99230 8.52586 1536 ft 187 kts 179°
2026-04-14 08:38 49.97885 8.52635 2065 ft 204 kts 173°
2026-04-14 08:39 49.96519 8.53523 2450 ft 226 kts 136°
2026-04-14 08:39 49.95556 8.55564 2926 ft 247 kts 116°
2026-04-14 08:39 49.94691 8.57979 3666 ft 260 kts 116°
2026-04-14 08:39 49.93810 8.60464 4564 ft 268 kts 116°
2026-04-14 08:40 49.92904 8.63024 4902 ft 271 kts 117°
2026-04-14 08:40 49.91996 8.65575 4998 ft 271 kts 117°
2026-04-14 08:40 49.91093 8.68101 5010 ft 270 kts 117°
2026-04-14 08:40 49.90177 8.70653 5006 ft 270 kts 117°
2026-04-14 08:41 49.89262 8.73205 5011 ft 271 kts 117°
2026-04-14 08:41 49.88347 8.75745 5037 ft 272 kts 117°
2026-04-14 08:41 49.87409 8.78339 5834 ft 275 kts 118°
2026-04-14 08:41 49.86469 8.80933 6845 ft 277 kts 118°
2026-04-14 08:42 49.85519 8.83564 7733 ft 281 kts 119°
2026-04-14 08:42 49.84554 8.86223 8641 ft 286 kts 120°
2026-04-14 08:42 49.83573 8.88924 9542 ft 290 kts 120°
2026-04-14 08:42 49.82575 8.91666 10345 ft 297 kts 121°
2026-04-14 08:43 49.81519 8.94562 10657 ft 321 kts 121°
2026-04-14 08:43 49.80396 8.97641 10977 ft 342 kts 120°
2026-04-14 08:43 49.79210 9.00892 11692 ft 350 kts 121°
2026-04-14 08:43 49.78005 9.04201 12543 ft 355 kts 121°
2026-04-14 08:44 49.76797 9.07570 13400 ft 361 kts 118°
2026-04-14 08:44 49.75875 9.11210 14167 ft 367 kts 107°
2026-04-14 08:44 49.75235 9.15046 14875 ft 370 kts 108°
2026-04-14 08:44 49.74255 9.18716 15552 ft 371 kts 120°
2026-04-14 08:45 49.72833 9.22043 16240 ft 372 kts 131°
2026-04-14 08:45 49.71132 9.25075 16939 ft 374 kts 133°
2026-04-14 08:45 49.69408 9.28107 17622 ft 377 kts 133°
2026-04-14 08:45 49.67670 9.31160 18302 ft 380 kts 133°
2026-04-14 08:46 49.65914 9.34247 18892 ft 383 kts 133°
2026-04-14 08:46 49.64149 9.37357 19462 ft 387 kts 133°
2026-04-14 08:46 49.62312 9.40404 20027 ft 389 kts 139°
2026-04-14 08:46 49.60199 9.42945 20585 ft 392 kts 149°
2026-04-14 08:47 49.57849 9.45105 21148 ft 395 kts 150°
2026-04-14 08:47 49.55470 9.47267 21703 ft 399 kts 150°
2026-04-14 08:47 49.53069 9.49454 22225 ft 403 kts 150°
2026-04-14 08:47 49.50648 9.51662 22742 ft 407 kts 150°
2026-04-14 08:48 49.48203 9.53895 23254 ft 411 kts 150°
2026-04-14 08:48 49.45726 9.56155 23736 ft 414 kts 150°
2026-04-14 08:48 49.43231 9.58427 24154 ft 417 kts 150°
2026-04-14 08:48 49.40722 9.60705 24581 ft 420 kts 150°
2026-04-14 08:49 49.38230 9.62965 24980 ft 422 kts 150°
2026-04-14 08:49 49.35703 9.65261 25109 ft 422 kts 149°
2026-04-14 08:49 49.33328 9.67914 25133 ft 423 kts 140°
2026-04-14 08:49 49.31212 9.71057 25133 ft 424 kts 136°
2026-04-14 08:50 49.29131 9.74259 25135 ft 424 kts 136°
2026-04-14 08:50 49.27046 9.77451 25139 ft 423 kts 136°
2026-04-14 08:50 49.24964 9.80628 25136 ft 423 kts 136°
2026-04-14 08:50 49.22872 9.83814 25137 ft 423 kts 136°
2026-04-14 08:51 49.20786 9.86988 25138 ft 423 kts 136°
2026-04-14 08:51 49.18697 9.90159 25137 ft 423 kts 136°
2026-04-14 08:51 49.16613 9.93318 25136 ft 423 kts 136°
2026-04-14 08:51 49.14526 9.96482 25135 ft 422 kts 136°
2026-04-14 08:52 49.12437 9.99641 25136 ft 422 kts 136°
2026-04-14 08:52 49.10340 10.02803 25136 ft 422 kts 136°
2026-04-14 08:52 49.08253 10.05944 25137 ft 422 kts 136°
2026-04-14 08:52 49.06193 10.09043 25139 ft 422 kts 136°
2026-04-14 08:53 49.04085 10.12143 25142 ft 421 kts 137°
2026-04-14 08:53 49.01944 10.15197 25148 ft 421 kts 139°
2026-04-14 08:53 48.99786 10.18216 25147 ft 421 kts 139°
2026-04-14 08:53 48.97623 10.21216 25147 ft 420 kts 139°
2026-04-14 08:54 48.95464 10.24218 25155 ft 420 kts 139°
2026-04-14 08:54 48.93311 10.27227 25157 ft 420 kts 139°
2026-04-14 08:54 48.91166 10.30244 25161 ft 420 kts 139°
2026-04-14 08:54 48.89027 10.33264 25159 ft 420 kts 138°
2026-04-14 08:55 48.86888 10.36288 25158 ft 420 kts 139°
2026-04-14 08:55 48.84753 10.39308 25154 ft 420 kts 139°
2026-04-14 08:55 48.82621 10.42333 25154 ft 420 kts 137°
2026-04-14 08:55 48.80549 10.45447 25156 ft 420 kts 136°
2026-04-14 08:56 48.78529 10.48655 25156 ft 420 kts 135°
2026-04-14 08:56 48.76541 10.51904 25149 ft 420 kts 134°
2026-04-14 08:56 48.74584 10.55134 25150 ft 419 kts 134°
2026-04-14 08:56 48.72594 10.58394 25143 ft 419 kts 134°
2026-04-14 08:57 48.70600 10.61622 25140 ft 419 kts 135°
2026-04-14 08:57 48.68596 10.64832 25140 ft 419 kts 135°
2026-04-14 08:57 48.66585 10.68023 25139 ft 419 kts 135°
2026-04-14 08:57 48.64571 10.71208 25136 ft 419 kts 135°
2026-04-14 08:58 48.62556 10.74392 25134 ft 419 kts 135°
2026-04-14 08:58 48.60570 10.77529 25134 ft 419 kts 135°
2026-04-14 08:58 48.58553 10.80717 25135 ft 419 kts 135°
2026-04-14 08:58 48.56547 10.83909 25132 ft 419 kts 135°
2026-04-14 08:59 48.54546 10.87118 25131 ft 419 kts 135°
2026-04-14 08:59 48.52551 10.90324 25134 ft 419 kts 135°
2026-04-14 08:59 48.50551 10.93534 25132 ft 419 kts 135°
2026-04-14 08:59 48.48549 10.96732 25133 ft 419 kts 135°
2026-04-14 09:00 48.46535 10.99905 25132 ft 419 kts 135°
2026-04-14 09:00 48.44512 11.03062 25133 ft 419 kts 135°
2026-04-14 09:00 48.42484 11.06208 25130 ft 419 kts 136°
2026-04-14 09:00 48.40453 11.09353 25130 ft 418 kts 135°
2026-04-14 09:01 48.38428 11.12493 25121 ft 418 kts 135°
2026-04-14 09:01 48.36401 11.15632 25120 ft 418 kts 136°
2026-04-14 09:01 48.34377 11.18765 25120 ft 418 kts 135°
2026-04-14 09:01 48.32351 11.21903 25118 ft 418 kts 135°
2026-04-14 09:02 48.30327 11.25037 25107 ft 418 kts 135°
2026-04-14 09:02 48.28329 11.28126 25106 ft 418 kts 135°
2026-04-14 09:02 48.26300 11.31253 25120 ft 417 kts 136°
2026-04-14 09:02 48.24220 11.34290 25123 ft 417 kts 138°
2026-04-14 09:03 48.22078 11.37224 25122 ft 417 kts 140°
2026-04-14 09:03 48.19903 11.40095 25122 ft 416 kts 140°
2026-04-14 09:03 48.17720 11.42945 25125 ft 417 kts 140°
2026-04-14 09:03 48.15536 11.45811 25126 ft 417 kts 140°
2026-04-14 09:04 48.13361 11.48688 25027 ft 417 kts 140°
2026-04-14 09:04 48.11206 11.51562 24782 ft 414 kts 140°
2026-04-14 09:04 48.09062 11.54434 24538 ft 413 kts 139°
2026-04-14 09:04 48.06934 11.57295 24119 ft 409 kts 139°
2026-04-14 09:05 48.04828 11.60128 23505 ft 406 kts 139°
2026-04-14 09:05 48.02729 11.62944 22921 ft 402 kts 139°
2026-04-14 09:05 48.00656 11.65717 22396 ft 398 kts 139°
2026-04-14 09:05 47.98606 11.68457 21894 ft 393 kts 140°
2026-04-14 09:06 47.96576 11.71165 21406 ft 389 kts 140°
2026-04-14 09:06 47.94569 11.73839 20930 ft 385 kts 140°
2026-04-14 09:06 47.92507 11.76347 20449 ft 380 kts 148°
2026-04-14 09:06 47.90236 11.78184 19981 ft 374 kts 159°
2026-04-14 09:07 47.87768 11.79323 19506 ft 370 kts 169°
2026-04-14 09:07 47.85222 11.79720 19012 ft 366 kts 180°
2026-04-14 09:07 47.82686 11.79585 18520 ft 364 kts 182°
2026-04-14 09:07 47.80161 11.79433 17978 ft 362 kts 182°
2026-04-14 09:08 47.77657 11.79289 17482 ft 358 kts 182°
2026-04-14 09:08 47.75092 11.79139 17024 ft 386 kts 182°
2026-04-14 09:08 47.73557 11.79041 16785 ft 405 kts 181°
2026-04-14 09:09 47.71820 11.78998 16716 ft 389 kts 179°
2026-04-14 09:09 47.69179 11.79100 16562 ft 362 kts 178°
2026-04-14 09:09 47.66768 11.79239 16116 ft 328 kts 174°
2026-04-14 09:09 47.64597 11.79756 15271 ft 311 kts 166°
2026-04-14 09:10 47.62471 11.80669 13028 ft 330 kts 160°
2026-04-14 09:10 47.60266 11.81972 11607 ft 332 kts 155°
2026-04-14 09:10 47.58346 11.83500 10805 ft 299 kts 146°
2026-04-14 09:10 47.56724 11.85209 9848 ft 274 kts 142°
2026-04-14 09:11 47.55347 11.86876 9784 ft 239 kts 137°
2026-04-14 09:11 47.54117 11.88439 9198 ft 232 kts 138°
2026-04-14 09:11 47.52774 11.89870 8373 ft 238 kts 152°
2026-04-14 09:11 47.51380 11.90786 8542 ft 193 kts 158°
2026-04-14 09:12 47.50193 11.91367 8593 ft 172 kts 160°
2026-04-14 09:12 47.49148 11.91729 8792 ft 125 kts 173°
2026-04-14 09:12 47.48412 11.91791 7005 ft 107 kts 133°
2026-04-14 09:12 47.47960 11.93317 2681 ft 308 kts 123°
2026-04-14 09:13 47.46307 11.94451 3310 ft 252 kts 205°
2026-04-14 09:13 47.45394 11.92710 3882 ft 193 kts 245°
2026-04-14 09:13 47.44903 11.91070 4078 ft 160 kts 245°
2026-04-14 09:13 47.44423 11.89662 3916 ft 148 kts 240°
2026-04-14 09:14 47.43846 11.88411 3668 ft 145 kts 231°
2026-04-14 09:14 47.43195 11.87283 3484 ft 141 kts 228°
2026-04-14 09:14 47.42681 11.86650 3512 ft 149 kts 210°
2026-04-14 09:14 47.41611 11.85404 3770 ft 146 kts 219°
2026-04-14 09:15 47.40926 11.84276 3926 ft 149 kts 225°
2026-04-14 09:15 47.40039 11.83609 3959 ft 146 kts 185°
2026-04-14 09:15 47.39125 11.82992 4232 ft 171 kts 230°
2026-04-14 09:15 47.38761 11.81784 4333 ft 217 kts 256°
2026-04-14 09:16 47.38472 11.79427 4288 ft 239 kts 258°
2026-04-14 09:16 47.38052 11.77124 3925 ft 226 kts 251°
2026-04-14 09:16 47.37384 11.75100 3708 ft 215 kts 237°
2026-04-14 09:16 47.36522 11.73366 3685 ft 203 kts 234°
2026-04-14 09:17 47.35684 11.71765 3717 ft 191 kts 231°
2026-04-14 09:17 47.34827 11.70355 3757 ft 179 kts 228°
2026-04-14 09:17 47.33910 11.68924 3884 ft 217 kts 227°
2026-04-14 09:17 47.32796 11.67088 4205 ft 260 kts 233°
2026-04-14 09:18 47.31841 11.64911 4472 ft 244 kts 243°
2026-04-14 09:18 47.31196 11.62688 4697 ft 230 kts 252°
2026-04-14 09:18 47.30750 11.60464 4684 ft 222 kts 252°
2026-04-14 09:18 47.30293 11.58353 4322 ft 211 kts 252°
2026-04-14 09:19 47.29859 11.56517 4586 ft 167 kts 249°
2026-04-14 09:19 47.29455 11.54834 4508 ft 183 kts 250°
2026-04-14 09:19 47.29051 11.53060 4604 ft 186 kts 255°
2026-04-14 09:19 47.28612 11.51280 4689 ft 187 kts 248°
2026-04-14 09:20 47.28147 11.49462 4616 ft 185 kts 251°
2026-04-14 09:20 47.27788 11.47737 4472 ft 170 kts 257°
2026-04-14 09:20 47.27563 11.46063 4270 ft 170 kts 261°
2026-04-14 09:20 47.27336 11.44396 3935 ft 167 kts 259°
2026-04-14 09:21 47.27038 11.42722 3452 ft 171 kts 256°
2026-04-14 09:21 47.26730 11.41053 3097 ft 164 kts 261°
2026-04-14 09:21 47.26596 11.39487 2821 ft 148 kts 264°
2026-04-14 09:21 47.26415 11.38018 2426 ft 143 kts 259°
2026-04-14 09:22 47.26258 11.36589 2079 ft 136 kts 262°
2026-04-14 09:22 47.26122 11.35289 1905 ft 120 kts 260°
2026-04-14 09:22 47.26006 11.34268 1900 ft 68 kts 260°
2026-04-14 09:22 47.25975 11.33988 1914 ft 6 kts 262°
2026-04-14 09:23 47.25960 11.33803 1915 ft 34 kts 263°
2026-04-14 09:23 47.25898 11.33712 1917 ft 15 kts 141°
2026-04-14 09:23 47.25805 11.33888 1905 ft 25 kts 127°
2026-04-14 09:23 47.25780 11.34157 1898 ft 26 kts 76°
2026-04-14 09:24 47.25809 11.34421 1889 ft 22 kts 81°
2026-04-14 09:24 47.25834 11.34662 1898 ft 21 kts 81°
2026-04-14 09:24 47.25853 11.34895 1892 ft 19 kts 75°
2026-04-14 09:24 47.25858 11.35015 1901 ft 7 kts 93°
2026-04-14 09:25 47.25829 11.35049 1898 ft 5 kts 154°
2026-04-14 09:25 47.25811 11.35055 1894 ft 0 kts 172°
2026-04-14 09:25 47.25821 11.35053 1895 ft 3 kts 172°